Skip Page Navigation
NASA JPL Caltech
NASA Logo - Jet Propulsion Laboratory + View the NASA Portal
+ Center for Near-Earth Object Studies
JPL Home Earth Solar System Stars & Galaxies Technology
JPL Solar System Dynamics
BODIES ORBITS EPHEMERIDES TOOLS PHYSICAL DATA DISCOVERY FAQ SITE MAP
IMPORTANT: The SSD Announcement email list is now available. Major changes are coming in the near future, including possible hostname and/or URL changes. To be notified of such changes, subscribe to this email list.

Please visit this page for more details.


JPL Small-Body Database Browser
Search: [ help ]  
4336 Jasniewicz (1984 QE1)
Classification: Main-belt Asteroid          SPK-ID: 2004336
Ephemeris | Orbit Diagram | Orbital Elements | Mission Design | Physical Parameters | Discovery Circumstances | Close-Approach Data ]

[ show orbit diagram ]
Orbital Elements at Epoch 2458600.5 (2019-Apr-27.0) TDB
Reference: JPL 31 (heliocentric ecliptic J2000)
 Element Value Uncertainty (1-sigma)   Units 
e .2263095969502774 4.9797e-08  
a 2.331987553238374 8.4213e-09 au
q 1.804236389971934 1.194e-07 au
i 7.946399564973174 5.7562e-06 deg
node 348.1458579845492 2.4936e-05 deg
peri 32.67290503304331 2.7266e-05 deg
M 237.0507732919551 1.2257e-05 deg
tp 2459044.733258470538
(2020-Jul-14.23325847)
4.5883e-05 TDB
period 1300.731833223719
3.56
7.0458e-06
1.929e-08
d
yr
n .2767672711659406 1.4992e-09 deg/d
Q 2.859738716504813 1.0327e-08 au
  Orbit Determination Parameters
   # obs. used (total)      1794  
   data-arc span      15326 days (41.96 yr)  
   first obs. used      1977-09-09  
   last obs. used      2019-08-26  
   planetary ephem.      DE431  
   SB-pert. ephem.      SB431-N16  
   condition code      0  
   norm. resid. RMS      .46761  
   source      ORB  
   producer      Otto Matic  
   solution date      2019-Sep-24 00:45:41  

Additional Information
 Earth MOID = .810918 au 
 Jupiter MOID = 2.62502 au 
 T_jup = 3.523 
[ show covariance matrix ]

Ephemeris | Orbit Diagram | Orbital Elements | Mission Design | Physical Parameters | Discovery Circumstances | Close-Approach Data ]

Physical Parameter Table
Parameter Symbol Value Units Sigma Reference Notes
absolute magnitude H 13.5   n/a MPO337288  
rotation period rot_per 9.99 h n/a LCDB (Rev. 2019-January); Warner et al., 2009 Result based on less than full coverage, so that the period may be wrong by 30 percent or so.
Published Reference List:
[Owings, L.E. (2018) Minor Planet Bull. 45, 227-231.]

4336 Jasniewicz (1984 QE1)          Discovered 1984-Aug-31 by Skiff, B. A. at Flagstaff
Reference: DISCOVERY.DBLast Updated: 2003-08-29

[ show close-approach data ]
Alternate Designations
 1984 QE1 = 1970 TE = 1977 RR4 = 1977 TD4 
Ephemeris | Orbit Diagram | Orbital Elements | Mission Design | Physical Parameters | Discovery Circumstances | Close-Approach Data ]
ABOUT SSD CREDITS/AWARDS PRIVACY/COPYRIGHT GLOSSARY LINKS
FirstGov 2019-Dec-13 21:52 UT
(server date/time)  
NASA Home Page
Site Manager:   Ryan S. Park
Webmaster  Alan B. Chamberlin